Regional Weather Roundup
Issued by NWS

Home | Current Version | Previous Version | Graphics & Text | Print | Product List | Glossary On
Versions: 1 2 3 4 5 6 7 8 9 10 11 12 13 14 15 16 17 18 19 20 21 22 23 24 25 26 27
000
ASUS45 KBOU 250807
RWRCO

WEATHER ROUNDUP FOR COLORADO
NATIONAL WEATHER SERVICE DENVER/BOULDER CO
200 AM MDT THU AUG 25 2016

NOTE: "FAIR" INDICATES FEW OR NO CLOUDS BELOW 12000 FEET WITH NO
SIGNIFICANT WEATHER AND/OR OBSTRUCTIONS TO VISIBILITY.

COZ001>005-013-030-031-250900-
...NORTHWEST COLORADO...

CITY           SKY/WX    TMP DP  RH WIND       PRES   REMARKS
CRAIG          FAIR      47  38  71 S3        30.22R
HAYDEN         FAIR      52  32  46 E10       30.23R
MEEKER         FAIR      52  41  66 VRB5      30.23S
MOUNT WERNER   NOT AVBL
STEAMBOAT SPGS FAIR      47  37  69 CALM      30.25R
WALDEN         FAIR      37  34  87 E8        30.34S
$$

COZ006>008-011-250900-
...WEST CENTRAL VALLEYS...

CITY           SKY/WX    TMP DP  RH WIND       PRES   REMARKS
GRAND JUNCTION FAIR      63  49  60 SE13      30.15F
MONTROSE       FAIR      56  46  69 E3        30.25R
EAGLE          MOCLDY    55  36  47 E8        30.27F
RIFLE          FAIR      56  49  77 SE3       30.21R
DELTA          FAIR      61  47  62 NE6       30.22R
NUCLA          FAIR      55  43  62 E10       30.25F
$$

COZ017>023-064>068-250900-
...SOUTHWEST COLORADO...

CITY           SKY/WX    TMP DP  RH WIND       PRES   REMARKS
DURANGO        FAIR      49  45  86 CALM      30.30R
CORTEZ         FAIR      54  49  83 E3        30.24R
PAGOSA SPRINGS MOCLDY    47  47  98 CALM      30.36S
TELLURIDE      FAIR      46  40  79 SE6       30.44F
WOLF CREEK PAS FAIR      37  37 100 SW8       30.60S
$$

COZ009-010-012-014-032>034-037-058>063-250900-
...CENTRAL COLORADO...

CITY           SKY/WX    TMP DP  RH WIND       PRES   REMARKS
ASPEN          FAIR      46  36  68 VRB3      30.33R
BUENA VISTA    CLOUDY    46  44  93 CALM      30.38F
COPPER MTN     FAIR      41  34  75 S14       30.55F
BERTHOUD PASS  FAIR      34  21  60 NW7       30.57R WCI  28
COTTONWOOD PAS FAIR      45  37  76 W6        30.46F
GUNNISON       FAIR      48  37  66 N7        30.37F
KREMMLING      FAIR      41  37  87 CALM      30.33R
LEADVILLE      MOCLDY    39  37  92 SE5       30.46R
MONARCH PASS   FAIR      37  34  87 W18       30.66F
SALIDA         CLOUDY    49  45  84 W6        30.45S
SUNLIGHT       FAIR      43  34  70 NE12G17   30.52S
WILKERSON PASS FAIR      36  36 100 W6        30.55S
$$

COZ069>075-250900-
...SAN LUIS VALLEY/SANGRE DE CRISTO MOUNTAINS...

CITY           SKY/WX    TMP DP  RH WIND       PRES   REMARKS
ALAMOSA        FAIR      43  41  93 N3        30.35S
LA VETA PASS   MOCLDY    43  39  87 CALM      30.47F
SAGUACHE       FAIR      45  43  93 NW9       30.38S
$$

COZ035-036-038>040-250900-
...NORTHERN COLORADO FRONT RANGE...

CITY           SKY/WX    TMP DP  RH WIND       PRES   REMARKS
DENVER INTL AP FAIR      48  40  73 S12       30.23S
DMNS CITY PARK   N/A     52  50  93 SW2G9     30.23S
AURORA         PTCLDY    49  40  70 SE10      30.24F
FRONT RANGE AP NOT AVBL
ERIE MUNI ARPT FAIR      48  47  97 CALM      30.22S
BOULDER MUN AP FAIR      52  50  93 CALM      30.22S
CENTENNIAL     FAIR      51  40  65 S9        30.24F
BROOMFIELD     FAIR      54  50  87 CALM      30.24S
FORT COLLINS   FAIR      52  50  93 CALM      30.23R
LONGMONT       FAIR      52  48  86 CALM      30.24S
$$

COZ041-046-047-076>085-087-088-250900-
...PIKES PEAK/PALMER DIVIDE AND SOUTHERN FOOTHILLS...

CITY           SKY/WX    TMP DP  RH WIND       PRES   REMARKS
COLO. SPRINGS  FAIR      50  36  58 CALM      30.30F
A. F. ACADEMY  FAIR      46  41  84 E5        30.30F
SCHRIEVER AFB  NOT AVBL
ELLICOTT       FAIR     N/A N/A N/A SE7       30.28
FALCON         FAIR      45  35  67 W6        30.33S
FORT CARSON    NOT AVBL
LIMON          FAIR      42  34  73 N7        30.26S
MONUMENT HILL  FAIR      41  34  75 S8        30.32F
TRINIDAD       FAIR      54  51  90 W9        30.27F
$$

COZ042>045-048>051-090-091-250900-
...NORTHEAST COLORADO...

CITY           SKY/WX    TMP DP  RH WIND       PRES   REMARKS
GREELEY ARPT   FAIR      50  46  87 CALM      30.23S
AKRON          FAIR      54  38  54 S9        30.22F
BURLINGTON     FAIR      55  44  66 NE3       30.21S
WRAY           NOT AVBL
STERLING       FAIR      52  43  71 CALM      30.21S
HOLYOKE        FAIR      52  45  76 CALM      30.20F
FORT MORGAN    FAIR      49  39  69 NE5       30.23F
$$

COZ086-089-092>099-250900-
...SOUTHEAST COLORADO...

CITY           SKY/WX    TMP DP  RH WIND       PRES   REMARKS
PUEBLO         FAIR      56  49  77 N3        30.22F
LA JUNTA       FAIR      60  42  51 NE5       30.20S
LAMAR          CLOUDY    61  49  64 CALM      30.16S
SPRINGFIELD      N/A     60  59  96 N5        30.18F
$$




USA.gov is the U.S. government's official web portal to all federal, state and local government web resources and services.